Погода в Горах

Россия / Санкт-Петербург и Ленинградская область     59°45′21″N   30°58′11″E
темп.,
°C
ветер,
м/с
пор.,
м/с
влажн.,
%
обл.,
%
осадки,
мм/ч
давл.,
гПа
погр.,
м
27 июля, вт
вт2700:00+17юз116737 0.0 102012
03:00+17юз22703 0.0 102036
06:00+17юз22715 0.0 102045
09:00+24юз12455 0.0 1020418
12:00+29ю11323 0.0 10192311
15:00+30ююв322963 0.0 10172863
18:00+29ююв32305 0.0 10162332
21:00+22вюв225440 0.0 101528
28 июля, ср
ср2800:00+19вюв2363100 0.0 101451
03:00+18вюв2667100 0.0 1014113
06:00+18юв2767100 0.0 1012162
09:00+20ююв2569100 0.0 1011221
12:00+23ю2361100 0.0 1010693
15:00+22ююв2571100 0.1 1009487
18:00+25ю355891 0.1 10071359
21:00+19ююз259499 6.6 100691
29 июля, чт
чт2900:00+17юз2398100 0.3 100558
03:00+16зюз279816 0.3 1005163
06:00+16юз259776 0.0 1004145
09:00+20зюз358116 0.0 1003490
12:00+24зюз5753100 0.0 10031589
15:00+21зюз597618 0.6 1002783
18:00+21з498111 1.8 10021064
21:00+18зюз39865 1.9 1001338
30 июля, пт
пт3000:00+15юз2897100 0.0 1002199
03:00+16юз31288100 0.0 1001479
06:00+16юз4118782 0.0 1001588
09:00+20зюз596310 0.0 10021189
12:00+22зюз510509 0.8 10011902
15:00+22зюз3843100 0.8 10001228
18:00+20сз255792 0.0 1000829
21:00+17ююз266593 0.1 1000127
31 июля, сб
сб3100:00+17ю396260 0.0 999275
03:00+15ююз3136953 0.0 998535
06:00+15ююз4126899 0.0 996594
09:00+16ююз51271100 0.3 9951041
12:00+15юз61293100 4.1 995970
15:00+19зюз510841 6.3 9961208
18:00+22з411470 0.3 9981644
21:00+15з22770 0.3 99925